GW6523 Weather Reports


time (UTC)temp
F
wind
direction
speed
knots
gust
knots
rain 1hr
in
rain 24hr
in
rain mn
in
humidity
%
barometer
mb
20260902233508 90 269 0.0 0.9 0.00 0.00 0.00 60 1003.8
20260902233022 90 223 0.0 0.9 0.00 0.00 0.00 60 1003.8
20260902233008 90 269 0.0 0.9 0.00 0.00 0.00 60 1003.8
20260902232508 90 135 0.0 1.7 0.00 0.00 0.00 59 1003.9
20260902232019 90 223 0.9 1.7 0.00 0.00 0.00 59 1003.9
20260902231521 90 223 0.9 1.7 0.00 0.00 0.00 58 1003.9
20260902231507 90 240 0.9 1.7 0.00 0.00 0.00 58 1003.9
20260902231009 91 216 0.0 2.6 0.00 0.00 0.00 58 1003.9
20260902230521 91 253 0.9 3.5 0.00 0.00 0.00 58 1003.9
20260902230508 91 231 0.9 3.5 0.00 0.00 0.00 58 1003.9
20260902230032 91 223 0.9 3.5 0.00 0.00 0.00 57 1003.9
20260902230009 91 1 0.9 3.5 0.00 0.00 0.00 57 1003.9
20260902225508 91 240 0.9 1.7 0.00 0.00 0.00 57 1004.0
20260902225008 91 223 0.0 2.6 0.00 0.00 0.00 57 1004.0
20260902224507 92 223 0.0 2.6 0.00 0.00 0.00 56 1003.9
20260902224007 92 314 0.0 2.6 0.00 0.00 0.00 57 1004.0
20260902223519 92 269 0.9 1.7 0.00 0.00 0.00 56 1003.9
20260902223030 92 269 0.9 2.6 0.00 0.00 0.00 56 1004.1
20260902222507 92 216 0.9 2.6 0.00 0.00 0.00 56 1004.1
20260902222007 92 46 0.0 2.6 0.00 0.00 0.00 55 1004.1
20260902221521 92 269 0.9 2.6 0.00 0.00 0.00 56 1004.1
20260902221507 92 28 0.9 2.6 0.00 0.00 0.00 55 1004.1
20260902221008 93 250 0.9 1.7 0.00 0.00 0.00 55 1004.1
20260902220521 93 269 0.0 2.6 0.00 0.00 0.00 55 1004.1
20260902220508 93 240 0.0 2.6 0.00 0.00 0.00 55 1004.1
20260902220021 93 1 0.9 2.6 0.00 0.00 0.00 54 1004.1
20260902220008 93 269 0.9 2.6 0.00 0.00 0.00 54 1004.1
20260902215507 93 258 0.0 1.7 0.00 0.00 0.00 54 1004.1
20260902215007 93 269 0.9 1.7 0.00 0.00 0.00 53 1004.0
20260902214521 93 360 0.9 2.6 0.00 0.00 0.00 54 1004.0
20260902214508 93 223 0.9 3.5 0.00 0.00 0.00 54 1004.0
20260902214020 93 206 0.9 3.5 0.00 0.00 0.00 53 1004.1
20260902213543 93 234 0.9 1.7 0.00 0.00 0.00 55 1004.1
20260902213507 93 302 0.9 1.7 0.00 0.00 0.00 54 1004.1
20260902213021 93 32 0.0 2.6 0.00 0.00 0.00 54 1004.2
20260902213007 93 89 0.0 2.6 0.00 0.00 0.00 54 1004.2
20260902212519 93 237 0.9 3.5 0.00 0.00 0.00 53 1004.2
20260902212019 93 216 0.9 3.5 0.00 0.00 0.00 54 1004.2
20260902211546 93 269 0.9 2.6 0.00 0.00 0.00 53 1004.2
20260902211509 93 223 0.9 2.6 0.00 0.00 0.00 53 1004.2
20260902211007 93 253 0.9 3.5 0.00 0.00 0.00 54 1004.2
20260902210507 94 240 0.9 1.7 0.00 0.00 0.00 53 1004.2
20260902210026 94 269 0.9 2.6 0.00 0.00 0.00 52 1004.3
20260902210007 94 223 0.9 2.6 0.00 0.00 0.00 52 1004.3
20260902205506 94 331 0.0 5.2 0.00 0.00 0.00 52 1004.3
20260902205018 94 259 0.9 5.2 0.00 0.00 0.00 53 1004.3
20260902204521 94 35 0.9 3.5 0.00 0.00 0.00 52 1004.3
20260902204507 94 28 0.9 1.7 0.00 0.00 0.00 52 1004.3
20260902204007 94 331 0.9 3.5 0.00 0.00 0.00 52 1004.3
20260902203522 94 259 1.7 3.5 0.00 0.00 0.00 51 1004.4
20260902203508 94 227 1.7 3.5 0.00 0.00 0.00 51 1004.4
20260902203032 94 269 0.9 2.6 0.00 0.00 0.00 52 1004.5
20260902203007 94 28 0.9 2.6 0.00 0.00 0.00 52 1004.5
20260902202507 94 327 0.9 2.6 0.00 0.00 0.00 53 1004.4
20260902202007 94 302 0.9 3.5 0.00 0.00 0.00 52 1004.5
20260902201521 94 295 1.7 3.5 0.00 0.00 0.00 52 1004.5
20260902201508 94 314 1.7 3.5 0.00 0.00 0.00 52 1004.5
20260902201012 94 46 0.0 3.5 0.00 0.00 0.00 52 1004.5
20260902200521 94 331 0.9 3.5 0.00 0.00 0.00 51 1004.5
20260902200508 94 240 0.9 3.5 0.00 0.00 0.00 51 1004.5
20260902200033 94 229 0.9 5.2 0.00 0.00 0.00 51 1004.6
20260902200007 94 240 0.9 5.2 0.00 0.00 0.00 51 1004.6
20260902195508 94 39 0.9 5.2 0.00 0.00 0.00 51 1004.7
20260902195007 94 269 0.9 3.5 0.00 0.00 0.00 51 1004.8
20260902194521 94 223 0.9 3.5 0.00 0.00 0.00 51 1004.8
20260902194508 94 197 0.9 3.5 0.00 0.00 0.00 51 1004.8
20260902194006 95 56 0.0 3.5 0.00 0.00 0.00 51 1004.8
20260902193508 95 1 0.9 3.5 0.00 0.00 0.00 50 1004.9
20260902193021 95 223 1.7 2.6 0.00 0.00 0.00 51 1004.9
20260902193007 95 259 1.7 2.6 0.00 0.00 0.00 51 1004.9
20260902192508 95 240 1.7 2.6 0.00 0.00 0.00 51 1005.0
20260902192007 94 223 0.9 3.5 0.00 0.00 0.00 51 1005.1
20260902191530 95 344 1.7 5.2 0.00 0.00 0.00 50 1005.1
20260902191007 95 30 2.6 5.2 0.00 0.00 0.00 51 1005.1
20260902190521 95 1 1.7 3.5 0.00 0.00 0.00 51 1005.2
20260902190507 95 39 0.9 3.5 0.00 0.00 0.00 51 1005.2
20260902190020 95 314 0.9 4.3 0.00 0.00 0.00 50 1005.2
20260902190009 95 269 0.9 4.3 0.00 0.00 0.00 50 1005.2
20260902185507 96 269 1.7 4.3 0.00 0.00 0.00 50 1005.3
20260902185009 96 234 0.9 2.6 0.00 0.00 0.00 50 1005.3
20260902184532 96 314 0.9 5.2 0.00 0.00 0.00 50 1005.3
20260902184507 96 302 0.9 5.2 0.00 0.00 0.00 51 1005.3
20260902184020 96 215 0.9 5.2 0.00 0.00 0.00 52 1005.4
20260902183506 96 347 0.9 4.3 0.00 0.00 0.00 51 1005.4
20260902183032 96 336 0.9 5.2 0.00 0.00 0.00 51 1005.4
20260902183007 96 223 0.9 5.2 0.00 0.00 0.00 51 1005.4
20260902182508 96 27 2.6 5.2 0.00 0.00 0.00 51 1005.5
20260902182008 95 269 1.7 5.2 0.00 0.00 0.00 52 1005.5
20260902181522 95 178 0.9 4.3 0.00 0.00 0.00 53 1005.5
20260902181508 95 269 0.9 4.3 0.00 0.00 0.00 54 1005.5
20260902181007 95 240 0.9 4.3 0.00 0.00 0.00 53 1005.5
20260902180521 95 46 0.9 4.3 0.00 0.00 0.00 53 1005.6
20260902180508 95 135 0.9 4.3 0.00 0.00 0.00 53 1005.6
20260902180021 95 257 1.7 2.6 0.00 0.00 0.00 54 1005.6
20260902180008 95 295 1.7 2.6 0.00 0.00 0.00 54 1005.6
20260902175508 94 250 0.9 3.5 0.00 0.00 0.00 56 1005.7
20260902175007 94 1 0.9 2.6 0.00 0.00 0.00 55 1005.7
20260902174522 94 1 0.9 3.5 0.00 0.00 0.00 56 1005.6
20260902174518 94 178 0.9 3.5 0.00 0.00 0.00 56 1005.6
20260902174007 94 46 0.9 3.5 0.00 0.00 0.00 55 1005.8
20260902173518 95 35 1.7 4.3 0.00 0.00 0.00 56 1005.8
20260902173022 95 39 1.7 2.6 0.00 0.00 0.00 56 1005.9
20260902173018 95 20 1.7 2.6 0.00 0.00 0.00 56 1005.9
20260902172507 96 46 0.9 5.2 0.00 0.00 0.00 54 1005.9
20260902172007 96 240 1.7 5.2 0.00 0.00 0.00 54 1006.0
20260902171520 96 20 2.6 5.2 0.00 0.00 0.00 55 1006.0
20260902171508 96 23 2.6 5.2 0.00 0.00 0.00 55 1006.0
20260902171018 96 253 0.9 5.2 0.00 0.00 0.00 55 1006.1
20260902170533 96 295 0.9 5.2 0.00 0.00 0.00 53 1006.1
20260902170507 96 295 1.7 5.2 0.00 0.00 0.00 54 1006.1
20260902170021 96 216 1.7 4.3 0.00 0.00 0.00 54 1006.1
20260902170008 96 290 1.7 4.3 0.00 0.00 0.00 55 1006.1
20260902165507 96 232 1.7 3.5 0.00 0.00 0.00 56 1006.1
20260902165009 96 35 0.9 4.3 0.00 0.00 0.00 53 1006.2
20260902164521 96 257 1.7 4.3 0.00 0.00 0.00 54 1006.2
20260902164509 96 229 1.7 4.3 0.00 0.00 0.00 54 1006.2
20260902164008 95 46 0.9 4.3 0.00 0.00 0.00 55 1006.3
20260902163521 95 46 0.9 3.5 0.00 0.00 0.00 54 1006.3
20260902163515 95 206 1.7 3.5 0.00 0.00 0.00 54 1006.3
20260902163021 96 23 0.9 3.5 0.00 0.00 0.00 53 1006.4
20260902163010 96 1 0.9 3.5 0.00 0.00 0.00 53 1006.4
20260902162507 96 324 0.9 3.5 0.00 0.00 0.00 56 1006.4
20260902162008 95 28 0.9 2.6 0.00 0.00 0.00 54 1006.4
20260902161520 95 223 0.9 4.3 0.00 0.00 0.00 55 1006.4
20260902161507 94 23 0.9 4.3 0.00 0.00 0.00 55 1006.4
20260902161021 94 250 0.9 4.3 0.00 0.00 0.00 56 1006.4
20260902161008 94 206 0.9 4.3 0.00 0.00 0.00 56 1006.4
20260902160520 94 314 0.9 3.5 0.00 0.00 0.00 56 1006.6
20260902160021 94 35 0.9 3.5 0.00 0.00 0.00 57 1006.6
20260902160011 94 40 0.9 3.5 0.00 0.00 0.00 56 1006.6
20260902155506 94 35 0.9 3.5 0.00 0.00 0.00 57 1006.6
20260902155007 94 331 0.9 2.6 0.00 0.00 0.00 58 1006.7
20260902154521 93 331 1.7 2.6 0.00 0.00 0.00 58 1006.7
20260902154508 93 324 1.7 2.6 0.00 0.00 0.00 58 1006.7
20260902154008 93 46 0.9 2.6 0.00 0.00 0.00 59 1006.7
20260902153524 92 324 0.9 2.6 0.00 0.00 0.00 63 1006.8
20260902153513 92 314 0.9 2.6 0.00 0.00 0.00 63 1006.8
20260902153021 91 23 0.9 3.5 0.00 0.00 0.00 62 1006.8
20260902153007 91 314 0.9 3.5 0.00 0.00 0.00 62 1006.8
20260902152508 91 20 0.9 3.5 0.00 0.00 0.00 63 1006.7
20260902152007 90 314 0.9 3.5 0.00 0.00 0.00 64 1006.8
20260902151521 90 340 0.0 3.5 0.00 0.00 0.00 63 1006.8
20260902151508 90 314 0.9 3.5 0.00 0.00 0.00 63 1006.8
20260902151020 89 1 0.9 2.6 0.00 0.00 0.00 66 1006.8
20260902150518 89 178 0.9 2.6 0.00 0.00 0.00 65 1006.8
20260902150022 88 178 0.0 2.6 0.00 0.00 0.00 68 1006.7
20260902150008 88 223 0.0 2.6 0.00 0.00 0.00 68 1006.7
20260902145507 88 20 1.7 2.6 0.00 0.00 0.00 68 1006.7
20260902145007 87 269 0.0 1.7 0.00 0.00 0.00 68 1006.7
20260902144521 87 250 0.9 1.7 0.00 0.00 0.00 69 1006.7
20260902144507 87 135 0.0 1.7 0.00 0.00 0.00 71 1006.7
20260902144008 86 46 0.0 1.7 0.00 0.00 0.00 71 1006.8
20260902143542 85 178 0.0 2.6 0.00 0.00 0.00 72 1006.7
20260902143020 85 1 0.0 4.3 0.00 0.00 0.00 73 1006.8
20260902143011 85 35 0.0 4.3 0.00 0.00 0.00 73 1006.8
20260902142508 85 32 1.7 4.3 0.00 0.00 0.00 73 1006.8
20260902142008 84 269 0.9 2.6 0.00 0.00 0.00 74 1006.8
20260902141520 84 178 0.0 4.3 0.00 0.00 0.00 74 1006.8
20260902141508 84 135 0.0 4.3 0.00 0.00 0.00 74 1006.8
20260902141006 83 76 1.7 4.3 0.00 0.00 0.00 74 1006.8
20260902140520 83 35 0.9 2.6 0.00 0.00 0.00 76 1006.7
20260902140507 83 25 0.9 2.6 0.00 0.00 0.00 76 1006.7
20260902140023 82 28 0.9 2.6 0.00 0.00 0.00 77 1006.7
20260902140009 82 89 0.9 2.6 0.00 0.00 0.00 77 1006.7
20260902135508 81 28 0.0 2.6 0.00 0.00 0.00 79 1006.7
20260902135008 81 269 0.0 1.7 0.00 0.00 0.00 79 1006.7
20260902134520 81 1 0.0 1.7 0.00 0.00 0.00 80 1006.7
20260902134507 80 1 0.0 1.7 0.00 0.00 0.00 80 1006.7
20260902134021 80 46 0.0 0.9 0.00 0.00 0.00 80 1006.7
20260902134008 80 1 0.0 0.9 0.00 0.00 0.00 80 1006.7
20260902133522 80 46 0.0 2.6 0.00 0.00 0.00 81 1006.8
20260902133507 80 314 0.0 2.6 0.00 0.00 0.00 81 1006.8
20260902133020 79 28 0.9 2.6 0.00 0.00 0.00 82 1006.8
20260902133007 79 89 0.9 2.6 0.00 0.00 0.00 82 1006.8
20260902132508 79 89 0.9 2.6 0.00 0.00 0.00 82 1006.8
20260902132011 78 314 0.0 1.7 0.00 0.00 0.00 83 1006.7
20260902131522 78 223 0.0 1.7 0.00 0.00 0.00 83 1006.8
20260902131508 78 178 0.0 1.7 0.00 0.00 0.00 83 1006.8
20260902131008 78 178 0.0 1.7 0.00 0.00 0.00 83 1006.8
20260902130507 78 223 0.0 1.7 0.00 0.00 0.00 84 1006.8
20260902130021 77 178 0.0 1.7 0.00 0.00 0.00 85 1006.8
20260902130007 77 240 0.0 1.7 0.00 0.00 0.00 85 1006.8
20260902125508 77 253 0.9 1.7 0.00 0.00 0.00 85 1006.7
20260902125008 77 240 0.0 1.7 0.00 0.00 0.00 86 1006.6
20260902124532 76 245 0.9 1.7 0.00 0.00 0.00 87 1006.7
20260902124507 76 223 0.9 1.7 0.00 0.00 0.00 87 1006.7
20260902124019 76 1 0.0 1.7 0.00 0.00 0.00 88 1006.6
20260902123520 75 223 0.0 1.7 0.00 0.00 0.00 88 1006.5
20260902123508 75 240 0.0 1.7 0.00 0.00 0.00 89 1006.5
20260902123020 75 240 0.0 0.9 0.00 0.00 0.00 90 1006.5
20260902123007 75 269 0.0 0.9 0.00 0.00 0.00 90 1006.5
20260902122518 74 269 0.0 1.7 0.00 0.00 0.00 91 1006.4
20260902122006 74 46 0.0 0.9 0.00 0.00 0.00 91 1006.3
20260902121520 73 269 0.0 0.9 0.00 0.00 0.00 91 1006.3
20260902121507 73 223 0.0 0.9 0.00 0.00 0.00 91 1006.3
20260902121011 73 223 0.0 0.9 0.00 0.00 0.00 91 1006.3
20260902120520 73 223 0.0 0.9 0.00 0.00 0.00 90 1006.3
20260902120508 73 269 0.0 0.9 0.00 0.00 0.00 90 1006.3
20260902120021 73 89 0.0 0.9 0.00 0.00 0.00 90 1006.2
20260902120008 73 240 0.0 0.9 0.00 0.00 0.00 90 1006.2
20260902115521 73 314 0.0 0.9 0.00 0.00 0.00 90 1006.1
20260902115513 73 295 0.0 0.9 0.00 0.00 0.00 90 1006.1
20260902115007 73 269 0.0 0.9 0.00 0.00 0.00 89 1006.1
20260902114524 73 269 0.0 0.9 0.00 0.00 0.00 89 1006.0
20260902114507 73 223 0.0 0.9 0.00 0.00 0.00 89 1006.0
20260902114030 73 269 0.0 0.0 0.00 0.00 0.00 89 1006.1
20260902113507 73 1 0.0 0.9 0.00 0.00 0.00 89 1006.0
20260902113020 73 89 0.0 0.9 0.00 0.00 0.00 89 1006.0
20260902113008 73 46 0.0 0.9 0.00 0.00 0.00 89 1006.0
20260902112507 73 269 0.0 0.9 0.00 0.00 0.00 89 1005.9
20260902112008 73 269 0.0 0.9 0.00 0.00 0.00 89 1005.9
20260902111521 73 269 0.0 0.0 0.00 0.00 0.00 88 1005.9
20260902111508 73 1 0.0 0.0 0.00 0.00 0.00 88 1005.9
20260902111007 73 223 0.0 0.0 0.00 0.00 0.00 88 1005.8
20260902110520 73 135 0.0 0.0 0.00 0.00 0.00 88 1005.8
20260902110508 73 269 0.0 0.0 0.00 0.00 0.00 88 1005.8
20260902110020 73 46 0.0 0.9 0.00 0.00 0.00 88 1005.8
20260902110012 73 269 0.0 0.9 0.00 0.00 0.00 88 1005.8
20260902105507 74 46 0.0 0.9 0.00 0.00 0.00 88 1005.9
20260902105007 74 1 0.0 0.9 0.00 0.00 0.00 88 1005.9
20260902104520 74 89 0.0 0.9 0.00 0.00 0.00 88 1005.8
20260902104511 74 178 0.0 0.9 0.00 0.00 0.00 88 1005.8
20260902104008 74 46 0.0 0.9 0.00 0.00 0.00 88 1005.8
20260902103508 74 295 0.0 0.9 0.00 0.00 0.00 88 1005.8
20260902103021 74 269 0.0 0.9 0.00 0.00 0.00 88 1005.8
20260902103007 74 314 0.0 0.9 0.00 0.00 0.00 88 1005.8
20260902102507 74 314 0.0 0.0 0.00 0.00 0.00 87 1005.7
20260902102008 74 295 0.0 0.9 0.00 0.00 0.00 87 1005.7
20260902101521 74 269 0.0 0.9 0.00 0.00 0.00 87 1005.7
20260902101508 74 46 0.0 0.9 0.00 0.00 0.00 88 1005.7
20260902101019 74 269 0.0 0.9 0.00 0.00 0.00 87 1005.7
20260902100506 74 46 0.0 0.9 0.00 0.00 0.00 87 1005.6
20260902100020 74 269 0.0 0.0 0.00 0.00 0.00 87 1005.6
20260902100008 74 314 0.0 0.0 0.00 0.00 0.00 87 1005.6
20260902095507 74 269 0.0 0.0 0.00 0.00 0.00 87 1005.6
20260902095007 74 178 0.0 0.0 0.00 0.00 0.00 87 1005.6
20260902094520 74 178 0.0 0.0 0.00 0.00 0.00 87 1005.5
20260902094507 74 1 0.0 0.0 0.00 0.00 0.00 87 1005.5
20260902094008 74 1 0.0 0.0 0.00 0.00 0.00 87 1005.5
20260902093507 74 178 0.0 0.9 0.00 0.00 0.00 87 1005.6
20260902093007 74 269 0.0 0.9 0.00 0.00 0.00 87 1005.6
20260902092507 74 223 0.0 0.9 0.00 0.00 0.00 87 1005.6
20260902092008 75 295 0.0 0.0 0.00 0.00 0.00 87 1005.5
20260902091520 75 46 0.0 0.0 0.00 0.00 0.00 87 1005.5
20260902091507 75 314 0.0 0.0 0.00 0.00 0.00 87 1005.5
20260902091006 75 1 0.0 0.0 0.00 0.00 0.00 87 1005.5
20260902090521 75 178 0.0 0.9 0.00 0.00 0.00 87 1005.4
20260902090509 75 269 0.0 0.9 0.00 0.00 0.00 87 1005.4
20260902090008 75 223 0.0 0.9 0.00 0.00 0.00 87 1005.3
20260902085521 75 269 0.0 0.9 0.00 0.00 0.00 87 1005.3
20260902085507 75 206 0.0 0.9 0.00 0.00 0.00 87 1005.3
20260902085018 75 223 0.0 0.9 0.00 0.00 0.00 87 1005.2
20260902084520 75 240 0.0 0.9 0.00 0.00 0.00 87 1005.2
20260902084508 75 223 0.0 0.9 0.00 0.00 0.00 87 1005.2
20260902084007 75 46 0.0 0.9 0.00 0.00 0.00 87 1005.1
20260902083520 75 250 0.0 0.9 0.00 0.00 0.00 87 1005.0
20260902083507 75 269 0.0 0.9 0.00 0.00 0.00 87 1005.0
20260902083007 75 46 0.0 0.9 0.00 0.00 0.00 87 1005.0
20260902082507 75 269 0.0 0.9 0.00 0.00 0.00 88 1005.0
20260902082008 75 46 0.0 0.9 0.00 0.00 0.00 87 1005.0
20260902081534 75 269 0.0 0.9 0.00 0.00 0.00 87 1005.0
20260902081519 75 295 0.0 0.9 0.00 0.00 0.00 87 1005.0
20260902081008 75 269 0.0 0.9 0.00 0.00 0.00 87 1004.9
20260902080507 75 269 0.0 0.9 0.00 0.00 0.00 87 1004.9
20260902080027 75 269 0.0 0.0 0.00 0.00 0.00 87 1004.9
20260902080024 75 46 0.0 0.0 0.00 0.00 0.00 87 1004.9
20260902075507 75 46 0.0 0.9 0.00 0.00 0.00 87 1004.9
20260902075007 75 314 0.0 0.9 0.00 0.00 0.00 87 1004.8
20260902074517 75 223 0.0 0.0 0.00 0.00 0.00 87 1004.9
20260902074006 75 46 0.0 0.0 0.00 0.00 0.00 87 1004.8
20260902073520 75 269 0.0 0.9 0.00 0.00 0.00 87 1004.8
20260902073507 75 46 0.0 0.9 0.00 0.00 0.00 87 1004.8
20260902073031 75 1 0.0 0.9 0.00 0.00 0.00 87 1004.9
20260902073007 75 178 0.0 0.9 0.00 0.00 0.00 87 1004.9
20260902072517 75 46 0.0 0.9 0.00 0.00 0.00 87 1004.9
20260902072006 75 46 0.0 0.9 0.00 0.00 0.00 87 1004.9
20260902071507 75 269 0.0 0.0 0.00 0.00 0.00 86 1004.9
20260902071007 75 314 0.0 0.0 0.00 0.00 0.00 86 1004.9
20260902070509 76 46 0.0 0.9 0.00 0.00 0.00 86 1004.9
20260902070020 76 269 0.0 0.9 0.00 0.00 0.00 86 1004.9
20260902070009 76 269 0.0 0.0 0.00 0.00 0.00 86 1004.9
20260902065507 76 269 0.0 0.9 0.00 0.00 0.00 86 1004.9
20260902065020 76 269 0.0 0.9 0.00 0.00 0.00 86 1004.9
20260902065008 76 46 0.0 0.9 0.00 0.00 0.00 86 1004.9
20260902064507 76 269 0.0 0.9 0.00 0.00 0.00 86 1004.8
20260902064009 76 331 0.0 0.9 0.00 0.00 0.00 86 1004.9
20260902063507 76 314 0.0 0.9 0.00 0.00 0.00 86 1004.8
20260902063022 76 269 0.0 0.9 0.00 0.00 0.00 86 1004.9
20260902063018 76 295 0.0 0.9 0.00 0.00 0.00 86 1004.9
20260902062508 76 269 0.0 0.9 0.00 0.00 0.00 85 1004.9
20260902062008 76 46 0.0 0.9 0.00 0.00 0.00 84 1004.9
20260902061531 76 46 0.0 0.9 0.00 0.00 0.00 85 1004.9
20260902061509 76 269 0.0 0.9 0.00 0.00 0.00 85 1004.9
20260902061019 77 269 0.0 0.9 0.00 0.00 0.00 85 1004.9
20260902060519 77 269 0.0 0.9 0.00 0.00 0.00 84 1005.0
20260902060021 77 269 0.0 0.9 0.00 0.00 0.00 83 1005.0
20260902060007 77 46 0.0 0.9 0.00 0.00 0.00 83 1005.0
20260902055507 77 46 0.0 0.9 0.00 0.00 0.00 84 1005.1
20260902055019 77 89 0.0 0.9 0.00 0.00 0.00 83 1005.0
20260902054530 77 269 0.0 0.0 0.00 0.00 0.00 83 1005.0
20260902054008 77 223 0.0 0.0 0.00 0.00 0.00 82 1005.0
20260902053520 77 46 0.0 0.0 0.00 0.00 0.00 82 1005.1
20260902053007 77 269 0.0 0.9 0.00 0.00 0.00 83 1005.0
20260902052510 77 46 0.0 0.9 0.00 0.00 0.00 83 1005.0
20260902052018 78 223 0.0 0.9 0.00 0.00 0.00 83 1004.9
20260902051520 78 223 0.0 0.9 0.00 0.00 0.00 82 1005.0
20260902051507 78 178 0.0 0.9 0.00 0.00 0.00 82 1005.0
20260902051007 78 314 0.0 0.9 0.00 0.00 0.00 82 1005.0
20260902050520 78 269 0.0 0.9 0.00 0.00 0.00 83 1005.1
20260902050508 78 269 0.0 0.9 0.00 0.00 0.00 82 1005.1
20260902050031 78 269 0.0 0.9 0.00 0.00 0.00 82 1005.0
20260902050009 78 46 0.0 0.9 0.00 0.00 0.00 82 1005.0
20260902045508 78 269 0.0 0.9 0.00 0.00 0.00 82 1005.1
20260902045018 78 269 0.0 0.9 0.00 0.00 0.00 81 1005.1
20260902044508 78 269 0.0 0.9 0.00 0.00 0.00 81 1005.0
20260902044018 79 178 0.0 0.9 0.00 0.00 0.00 81 1005.0
20260902043513 79 240 0.0 0.9 0.00 0.00 0.00 81 1005.0
20260902043020 79 269 0.0 0.9 0.00 0.00 0.00 80 1005.0
20260902043008 79 314 0.0 0.9 0.00 0.00 0.00 80 1005.0
20260902042508 79 269 0.0 0.9 0.00 0.00 0.00 80 1005.0
20260902042008 79 269 0.0 0.9 0.00 0.00 0.00 80 1005.1
20260902041521 79 269 0.0 0.9 0.00 0.00 0.00 80 1005.1
20260902041509 79 223 0.0 0.9 0.00 0.00 0.00 80 1005.1
20260902041008 79 269 0.0 0.9 0.00 0.00 0.00 80 1005.1
20260902040531 79 223 0.0 0.9 0.00 0.00 0.00 80 1005.1
20260902040507 79 269 0.0 0.9 0.00 0.00 0.00 80 1005.1
20260902040009 79 269 0.0 0.9 0.00 0.00 0.00 79 1005.0
20260902035506 79 223 0.0 0.9 0.00 0.00 0.00 79 1005.0
20260902035020 79 269 0.0 0.9 0.00 0.00 0.00 79 1005.0
20260902035008 79 250 0.0 0.9 0.00 0.00 0.00 79 1005.0
20260902034507 80 269 0.0 0.9 0.00 0.00 0.00 79 1005.1
20260902034021 80 314 0.0 0.9 0.00 0.00 0.00 79 1005.0
20260902034007 80 240 0.0 0.9 0.00 0.00 0.00 79 1005.0
20260902033520 80 269 0.0 0.9 0.00 0.00 0.00 79 1005.0
20260902033507 80 206 0.0 0.9 0.00 0.00 0.00 79 1005.0
20260902033008 80 223 0.0 1.7 0.00 0.00 0.00 79 1005.0
20260902032508 80 269 0.0 1.7 0.00 0.00 0.00 79 1005.0
20260902032007 80 240 0.0 0.9 0.00 0.00 0.00 79 1005.0
20260902031530 79 240 0.0 1.7 0.00 0.00 0.00 79 1004.9
20260902031013 79 240 0.0 1.7 0.00 0.00 0.00 80 1005.0
20260902030507 79 253 0.0 1.7 0.00 0.00 0.00 80 1005.0
20260902030031 79 135 0.0 1.7 0.00 0.00 0.00 80 1005.0
20260902030008 79 223 0.9 1.7 0.00 0.00 0.00 80 1005.0
20260902025507 80 240 0.9 1.7 0.00 0.00 0.00 80 1005.0
20260902025009 79 250 0.0 0.9 0.00 0.00 0.00 80 1005.0
20260902024532 80 269 0.0 0.9 0.00 0.00 0.00 81 1005.1
20260902024019 80 253 0.0 0.9 0.00 0.00 0.00 80 1005.1
20260902023542 80 269 0.0 0.9 0.00 0.00 0.00 80 1005.1
20260902023508 80 269 0.0 0.9 0.00 0.00 0.00 80 1005.1
20260902023022 80 178 0.0 0.9 0.00 0.00 0.00 80 1005.1
20260902023007 80 269 0.0 0.9 0.00 0.00 0.00 80 1005.1
20260902022518 80 269 0.0 0.9 0.00 0.00 0.00 80 1005.1
20260902022020 81 269 0.0 0.9 0.00 0.00 0.00 79 1005.1
20260902022008 80 223 0.0 0.9 0.00 0.00 0.00 79 1005.1
20260902021616 81 223 0.0 0.9 0.00 0.00 0.00 79 1005.1
20260902021007 81 269 0.0 0.9 0.00 0.00 0.00 78 1005.1
20260902020520 81 360 0.0 0.9 0.00 0.00 0.00 77 1005.0
20260902020507 81 269 0.0 0.9 0.00 0.00 0.00 77 1005.0
20260902020020 81 314 0.0 0.9 0.00 0.00 0.00 77 1005.1
20260902020008 81 46 0.0 0.9 0.00 0.00 0.00 77 1005.1
20260902015538 82 269 0.0 0.9 0.00 0.00 0.00 77 1005.0
20260902015030 82 1 0.0 0.9 0.00 0.00 0.00 77 1005.0
20260902014520 82 46 0.0 0.9 0.00 0.00 0.00 76 1005.0
20260902014507 82 46 0.0 0.9 0.00 0.00 0.00 77 1005.0
20260902014010 82 46 0.0 0.9 0.00 0.00 0.00 75 1005.0
20260902013507 82 46 0.0 0.9 0.00 0.00 0.00 76 1004.9
20260902013020 83 1 0.0 0.9 0.00 0.00 0.00 75 1004.9
20260902013008 83 314 0.0 0.9 0.00 0.00 0.00 75 1004.9
20260902012507 83 46 0.0 0.9 0.00 0.00 0.00 75 1004.8
20260902012044 83 314 0.0 0.9 0.00 0.00 0.00 74 1004.7
20260902011531 83 240 0.0 0.9 0.00 0.00 0.00 74 1004.7
20260902011507 83 269 0.0 0.9 0.00 0.00 0.00 74 1004.7
20260902010507 84 269 0.0 0.9 0.00 0.00 0.00 73 1004.7
20260902010020 84 46 0.0 0.9 0.00 0.00 0.00 72 1004.7
20260902010008 84 314 0.0 0.9 0.00 0.00 0.00 72 1004.7
20260902005510 85 314 0.0 0.9 0.00 0.00 0.00 72 1004.6
20260902005006 85 223 0.0 0.0 0.00 0.00 0.00 71 1004.6
20260902004532 85 46 0.0 0.0 0.00 0.00 0.00 70 1004.6
20260902004507 85 269 0.0 0.0 0.00 0.00 0.00 70 1004.6
20260902004020 86 46 0.0 0.0 0.00 0.00 0.00 70 1004.6
20260902004007 86 223 0.0 0.0 0.00 0.00 0.00 70 1004.6
20260902003506 86 178 0.0 0.0 0.00 0.00 0.00 68 1004.6
20260902003019 87 46 0.0 0.0 0.00 0.00 0.00 67 1004.6
20260902002506 87 46 0.0 0.0 0.00 0.00 0.00 66 1004.6
20260902002020 87 269 0.0 0.0 0.00 0.00 0.00 66 1004.6
20260902002008 87 178 0.0 0.0 0.00 0.00 0.00 66 1004.6
20260902001520 87 135 0.0 0.0 0.00 0.00 0.00 65 1004.6
20260902001507 87 46 0.0 0.0 0.00 0.00 0.00 65 1004.6
20260902001014 88 46 0.0 0.0 0.00 0.00 0.00 64 1004.7
20260902000520 88 46 0.0 0.0 0.00 0.00 0.00 63 1004.7
20260902000508 88 269 0.0 0.0 0.00 0.00 0.00 63 1004.7
20260902000018 88 46 0.0 0.0 0.00 0.00 0.00 63 1004.7
20260901235518 89 46 0.0 0.0 0.00 0.00 0.00 62 1004.7
20260901235007 89 206 0.0 0.9 0.00 0.00 0.00 62 1004.6
20260901234507 89 46 0.0 0.9 0.00 0.00 0.00 62 1004.7
20260901234018 89 240 0.0 0.9 0.00 0.00 0.00 61 1004.7